H1 CPF 2 NER 2024 1 23 9 023 01 glonass105 H2 0705202 9105 32276 2024 1 23 0 0 0 2024 1 26 23 45 0 900 1 1 0 0 0 1 H9 10 0 60332 0.00000 0 7930858.715 -6772720.563 23293282.509 10 0 60332 900.00000 0 10081234.657 -4897082.668 22932334.888 10 0 60332 1800.00000 0 12311824.213 -3235405.149 22126910.158 10 0 60332 2700.00000 0 14558813.189 -1819157.590 20892748.889 10 0 60332 3600.00000 0 16754825.562 -667461.435 19253865.152 10 0 60332 4500.00000 0 18831593.301 213483.341 17242078.067 10 0 60332 5400.00000 0 20722678.236 830423.394 14896396.109 10 0 60332 6300.00000 0 22366133.933 1202529.681 12262265.690 10 0 60332 7200.00000 0 23706997.904 1360350.818 9390697.923 10 0 60332 8100.00000 0 24699511.348 1344286.841 6337289.663 10 0 60332 9000.00000 0 25308974.687 1202647.896 3161156.856 10 0 60332 9900.00000 0 25513161.925 989379.522 -76200.034 10 0 60332 10800.00000 0 25303234.935 761550.099 -3312077.385 10 0 60332 11700.00000 0 24684119.245 576706.006 -6483774.456 10 0 60332 12600.00000 0 23674325.072 490205.731 -9529801.296 10 0 60332 13500.00000 0 22305220.275 552645.256 -12391065.602 10 0 60332 14400.00000 0 20619784.573 807483.459 -15012015.887 10 0 60332 15300.00000 0 18670895.956 1288968.220 -17341718.930 10 0 60332 16200.00000 0 16519219.717 2020451.586 -19334850.740 10 0 60332 17100.00000 0 14230787.092 3013166.389 -20952581.724 10 0 60332 18000.00000 0 11874363.662 4265517.560 -22163338.657 10 0 60332 18900.00000 0 9518716.478 5762920.117 -22943428.309 10 0 60332 19800.00000 0 7229893.387 7478192.942 -23277510.068 10 0 60332 20700.00000 0 5068627.746 9372494.260 -23158907.627 10 0 60332 21600.00000 0 3087976.760 11396761.862 -22589752.810 10 0 60332 22500.00000 0 1331292.107 13493599.766 -21580957.689 10 0 60332 23400.00000 0 -169392.064 15599533.855 -20152014.477 10 0 60332 24300.00000 0 -1394486.107 17647543.028 -18330625.999 10 0 60332 25200.00000 0 -2337439.477 19569760.324 -16152173.000 10 0 60332 26100.00000 0 -3004777.999 21300230.590 -13659027.963 10 0 60332 27000.00000 0 -3415582.620 22777608.429 -10899728.442 10 0 60332 27900.00000 0 -3600432.280 23947682.164 -7928026.005 10 0 60332 28800.00000 0 -3599856.602 24765616.576 -4801829.851 10 0 60332 29700.00000 0 -3462365.234 25197818.978 -1582066.533 10 0 60332 30600.00000 0 -3242138.965 25223349.153 1668520.757 10 0 60332 31500.00000 0 -2996482.353 24834813.237 4886608.456 10 0 60332 32400.00000 0 -2783147.744 24038703.810 8009538.808 10 0 60332 33300.00000 0 -2657645.953 22855172.276 10976550.280 10 0 60332 34200.00000 0 -2670659.128 21317243.937 13729966.959 10 0 60332 35100.00000 0 -2865666.520 19469509.931 16216323.024 10 0 60332 36000.00000 0 -3276884.327 17366352.241 18387400.059 10 0 60332 36900.00000 0 -3927606.936 15069777.521 20201157.165 10 0 60332 37800.00000 0 -4829019.396 12646951.430 21622536.507 10 0 60332 38700.00000 0 -5979530.737 10167537.184 22624129.692 10 0 60332 39600.00000 0 -7364655.580 7700949.528 23186693.427 10 0 60332 40500.00000 0 -8957448.445 5313638.102 23299505.967 10 0 60332 41400.00000 0 -10719472.146 3066512.223 22960558.957 10 0 60332 42300.00000 0 -12602259.557 1012612.677 22176582.306 10 0 60332 43200.00000 0 -14549207.825 -804874.657 20962902.709 10 0 60332 44100.00000 0 -16497826.425 -2354182.959 19343139.275 10 0 60332 45000.00000 0 -18382246.019 -3616043.613 17348742.524 10 0 60332 45900.00000 0 -20135884.476 -4584237.610 15018385.649 10 0 60332 46800.00000 0 -21694160.002 -5265598.219 12397219.414 10 0 60332 47700.00000 0 -22997139.269 -5679466.424 9536004.537 10 0 60332 48600.00000 0 -23992011.074 -5856623.144 6490137.498 10 0 60332 49500.00000 0 -24635283.004 -5837743.759 3318587.732 10 0 60332 50400.00000 0 -24894609.819 -5671440.190 82765.910 10 0 60332 51300.00000 0 -24750177.249 -5411972.885 -3154655.637 10 0 60332 52200.00000 0 -24195583.095 -5116728.835 -6330948.267 10 0 60332 53100.00000 0 -23238178.157 -4843571.610 -9384535.350 10 0 60332 54000.00000 0 -21898851.794 -4648174.874 -12256180.668 10 0 60332 54900.00000 0 -20211269.849 -4581451.776 -14890134.179 10 0 60332 55800.00000 0 -18220595.448 -4687188.818 -17235213.136 10 0 60332 56700.00000 0 -15981744.638 -4999984.528 -19245797.664 10 0 60332 57600.00000 0 -13557248.222 -5543580.765 -20882721.472 10 0 60332 58500.00000 0 -11014807.699 -6329658.292 -22114040.171 10 0 60332 59400.00000 0 -8424646.034 -7357149.042 -22915661.971 10 0 60332 60300.00000 0 -5856762.787 -8612096.034 -23271827.958 10 0 60332 61200.00000 0 -3378207.340 -10068068.975 -23175431.901 10 0 60332 62100.00000 0 -1050483.546 -11687120.299 -22628172.488 10 0 60332 63000.00000 0 1072806.129 -13421243.548 -21640533.994 10 0 60332 63900.00000 0 2947978.533 -15214274.565 -20231594.673 10 0 60332 64800.00000 0 4542865.340 -17004156.968 -18428665.497 10 0 60332 65700.00000 0 5837919.266 -18725477.495 -16266765.344 10 0 60332 66600.00000 0 6826784.537 -20312164.830 -13787942.116 10 0 60332 67500.00000 0 7516307.923 -21700238.033 -11040452.613 10 0 60332 68400.00000 0 7925990.400 -22830488.139 -8077817.167 10 0 60332 69300.00000 0 8086903.485 -23650978.803 -4957767.899 10 0 60332 70200.00000 0 8040117.337 -24119259.442 -1741111.971 10 0 60332 71100.00000 0 7834708.712 -24204196.362 1509466.804 10 0 60332 72000.00000 0 7525435.021 -23887343.766 4730643.152 10 0 60332 72900.00000 0 7170174.971 -23163796.287 7859696.723 10 0 60332 73800.00000 0 6827246.217 -22042487.058 10835743.929 10 0 60332 74700.00000 0 6552715.343 -20545919.131 13600929.994 10 0 60332 75600.00000 0 6397815.469 -18709342.313 16101557.173 10 0 60332 76500.00000 0 6406581.621 -16579410.979 18289126.841 10 0 60332 77400.00000 0 6613804.223 -14212380.272 20121275.293 10 0 60332 78300.00000 0 7043386.977 -11671917.159 21562585.734 10 0 60332 79200.00000 0 7707177.904 -9026618.480 22585261.762 10 0 60332 80100.00000 0 8604322.002 -6347339.834 23169650.602 10 0 60332 81000.00000 0 9721161.883 -3704446.257 23304607.496 10 0 60332 81900.00000 0 11031689.843 -1165098.249 22987695.664 10 0 60332 82800.00000 0 12498531.817 1209315.384 22225219.370 10 0 60332 83700.00000 0 14074421.805 3365493.004 21032090.509 10 0 60332 84600.00000 0 15704105.196 5260189.879 19431532.090 10 0 60332 85500.00000 0 17326591.850 6861762.533 17454624.695 10 0 60333 0.00000 0 18877665.375 8151225.657 15139704.917 10 0 60333 900.00000 0 20292545.509 9122780.298 12531625.743 10 0 60333 1800.00000 0 21508591.243 9783791.482 9680895.778 10 0 60333 2700.00000 0 22467935.423 10154219.919 6642709.029 10 0 60333 3600.00000 0 23119939.332 10265530.851 3475886.147 10 0 60333 4500.00000 0 23423365.913 10159127.145 241745.576 10 0 60333 5400.00000 0 23348180.694 9884372.516 -2997074.184 10 0 60333 6300.00000 0 22876904.820 9496287.967 -6177819.171 10 0 60333 7200.00000 0 22005462.926 9053018.156 -9238828.629 10 0 60333 8100.00000 0 20743489.340 8613174.110 -12120724.862 10 0 60333 9000.00000 0 19114078.518 8233164.033 -14767561.556 10 0 60333 9900.00000 0 17152988.550 7964624.656 -17127908.500 10 0 60333 10800.00000 0 14907329.326 7852061.594 -19155851.786 10 0 60333 11700.00000 0 12433788.363 7930798.669 -20811890.053 10 0 60333 12600.00000 0 9796466.624 8225323.525 -22063709.169 10 0 60333 13500.00000 0 7064413.039 8748100.404 -22886819.988 10 0 60333 14400.00000 0 4308959.114 9498901.698 -23265046.264 10 0 60333 15300.00000 0 1600963.722 10464688.155 -23190852.531 10 0 60333 16200.00000 0 -991917.875 11620044.728 -22665504.689 10 0 60333 17100.00000 0 -3407827.351 12928155.629 -21699059.172 10 0 60333 18000.00000 0 -5593050.897 14342279.244 -20310179.778 10 0 60333 18900.00000 0 -7504023.035 15807662.245 -18525784.690 10 0 60333 19800.00000 0 -9108902.715 17263813.249 -16380529.540 10 0 60333 20700.00000 0 -10388655.588 18647040.639 -13916135.855 10 0 60333 21600.00000 0 -11337597.114 19893147.470 -11180577.567 10 0 60333 22500.00000 0 -11963374.041 20940169.149 -8227141.371 10 0 60333 23400.00000 0 -12286385.692 21731037.337 -5113379.706 10 0 60333 24300.00000 0 -12338670.632 22216056.352 -1899977.606 10 0 60333 25200.00000 0 -12162307.169 22355086.152 1350443.316 10 0 60333 26100.00000 0 -11807397.176 22119338.543 4574558.934 10 0 60333 27000.00000 0 -11329720.515 21492709.865 7709589.142 10 0 60333 27900.00000 0 -10788161.399 20472593.421 10694531.094 10 0 60333 28800.00000 0 -10242017.515 19070137.353 13471353.857 10 0 60333 29700.00000 0 -9748307.357 17309937.454 15986130.343 10 0 60333 30600.00000 0 -9359190.731 15229178.498 18190084.140 10 0 60333 31500.00000 0 -9119612.013 12876260.954 20040530.956 10 0 60333 32400.00000 0 -9065265.648 10308971.440 21501697.025 10 0 60333 33300.00000 0 -9220969.170 7592274.034 22545399.636 10 0 60333 34200.00000 0 -9599511.419 4795814.947 23151577.911 10 0 60333 35100.00000 0 -10201023.299 1991244.339 23308665.067 10 0 60333 36000.00000 0 -11012896.406 -750533.931 23013796.467 10 0 60333 36900.00000 0 -12010251.968 -3362071.480 22272850.806 10 0 60333 37800.00000 0 -13156939.707 -5781932.582 21100324.761 10 0 60333 38700.00000 0 -14407024.421 -7956995.148 19519044.282 10 0 60333 39600.00000 0 -15706698.055 -9844402.039 17559718.539 10 0 60333 40500.00000 0 -16996537.569 -11413083.881 15260345.120 10 0 60333 41400.00000 0 -18214014.775 -12644792.124 12665477.675 10 0 60333 42300.00000 0 -19296153.839 -13534601.216 9825369.565 10 0 60333 43200.00000 0 -20182226.058 -14090860.528 6795009.303 10 0 60333 44100.00000 0 -20816369.787 -14334599.242 3633065.542 10 0 60333 45000.00000 0 -21150026.273 -14298409.892 400761.186 10 0 60333 45900.00000 0 -21144089.586 -14024857.804 -2839302.464 10 0 60333 46800.00000 0 -20770680.340 -13564483.251 -6024349.480 10 0 60333 47700.00000 0 -20014468.361 -12973480.169 -9092638.297 10 0 60333 48600.00000 0 -18873487.853 -12311148.756 -11984652.960 10 0 60333 49500.00000 0 -17359409.627 -11637228.843 -14644253.949 10 0 60333 50400.00000 0 -15497257.304 -11009226.071 -17019766.426 10 0 60333 51300.00000 0 -13324577.482 -10479843.386 -19064984.962 10 0 60333 52200.00000 0 -10890096.533 -10094626.182 -20740075.216 10 0 60333 53100.00000 0 -8251918.092 -9889920.709 -22012354.878 10 0 60333 54000.00000 0 -5475334.502 -9891232.499 -22856938.415 10 0 60333 54900.00000 0 -2630341.725 -10112054.989 -23257232.594 10 0 60333 55800.00000 0 211040.144 -10553219.027 -23205272.425 10 0 60333 56700.00000 0 2977530.204 -11202792.157 -22701890.161 10 0 60333 57600.00000 0 5601319.511 -12036533.527 -21756713.004 10 0 60333 58500.00000 0 8020659.640 -13018886.789 -20387988.492 10 0 60333 59400.00000 0 10182199.134 -14104470.436 -18622239.826 10 0 60333 60300.00000 0 12042970.064 -15240003.724 -16493756.889 10 0 60333 61200.00000 0 13571941.378 -16366587.423 -14043932.077 10 0 60333 62100.00000 0 14751073.801 -17422243.106 -11320453.465 10 0 60333 63000.00000 0 15575832.106 -18344603.223 -8376370.953 10 0 60333 63900.00000 0 16055133.571 -19073637.306 -5269054.026 10 0 60333 64800.00000 0 16210735.658 -19554297.778 -2059062.270 10 0 60333 65700.00000 0 16076089.948 -19738972.069 1191048.179 10 0 60333 66600.00000 0 15694712.362 -19589635.942 4417957.490 10 0 60333 67500.00000 0 15118140.448 -19079615.819 7558828.732 10 0 60333 68400.00000 0 14403566.147 -18194884.789 10552542.439 10 0 60333 69300.00000 0 13611246.130 -16934837.158 13340893.802 10 0 60333 70200.00000 0 12801800.920 -15312508.848 15869728.291 10 0 60333 71100.00000 0 12033518.258 -13354234.691 18089993.206 10 0 60333 72000.00000 0 11359775.364 -11098757.587 19958684.759 10 0 60333 72900.00000 0 10826689.017 -8595827.503 21439672.899 10 0 60333 73800.00000 0 10471092.085 -5904349.499 22504388.910 10 0 60333 74700.00000 0 10318920.812 -3090158.444 23132363.742 10 0 60333 75600.00000 0 10384079.413 -223513.137 23311608.171 10 0 60333 76500.00000 0 10667828.283 2623586.389 23038828.964 10 0 60333 77400.00000 0 11158720.095 5380147.792 22319478.224 10 0 60333 78300.00000 0 11833085.270 7978888.806 21167636.121 10 0 60333 79200.00000 0 12656045.547 10358782.665 19605730.047 10 0 60333 80100.00000 0 13583012.694 12467342.833 17664096.058 10 0 60333 81000.00000 0 14561609.428 14262554.233 15380391.100 10 0 60333 81900.00000 0 15533932.301 15714372.771 12798867.047 10 0 60333 82800.00000 0 16439062.230 16805732.586 9969520.042 10 0 60333 83700.00000 0 17215718.040 17533020.677 6947130.807 10 0 60333 84600.00000 0 17804942.460 17906000.379 3790213.598 10 0 60333 85500.00000 0 18152708.381 17947187.752 559893.281 10 0 60334 0.00000 0 18212336.363 17690707.561 -2681268.268 10 0 60334 900.00000 0 17946621.885 17180676.770 -5870476.240 10 0 60334 1800.00000 0 17329582.611 16469183.705 -8945910.365 10 0 60334 2700.00000 0 16347751.654 15613946.992 -11847918.676 10 0 60334 3600.00000 0 15000961.158 14675752.539 -14520170.489 10 0 60334 4500.00000 0 13302581.814 13715775.856 -16910748.172 10 0 60334 5400.00000 0 11279206.295 12792902.021 -18973156.378 10 0 60334 6300.00000 0 8969787.674 11961155.872 -20667229.181 10 0 60334 7200.00000 0 6424266.586 11267350.623 -21959917.288 10 0 60334 8100.00000 0 3701742.207 10749054.176 -22825939.782 10 0 60334 9000.00000 0 868261.261 10432959.308 -23248287.222 10 0 60334 9900.00000 0 -2005684.545 10333727.210 -23218565.619 10 0 60334 10800.00000 0 -4847849.817 10453354.143 -22737173.767 10 0 60334 11700.00000 0 -7587004.416 10781089.091 -21813309.445 10 0 60334 12600.00000 0 -10155665.163 11293907.099 -20464803.287 10 0 60334 13500.00000 0 -12492676.610 11957519.452 -18717782.422 10 0 60334 14400.00000 0 -14545533.009 12727878.927 -16606169.466 10 0 60334 15300.00000 0 -16272344.105 13553117.062 -14171025.791 10 0 60334 16200.00000 0 -17643362.113 14375831.616 -11459751.433 10 0 60334 17100.00000 0 -18642005.629 15135627.083 -8525157.113 10 0 60334 18000.00000 0 -19265337.516 15771799.874 -5424426.852 10 0 60334 18900.00000 0 -19523977.083 16226053.261 -2217992.221 10 0 60334 19800.00000 0 -19441451.134 16445125.669 1031658.711 10 0 60334 20700.00000 0 -19053012.587 16383219.489 4261212.989 10 0 60334 21600.00000 0 -18403978.202 16004126.213 7407779.423 10 0 60334 22500.00000 0 -17547657.576 15282956.845 10410124.462 10 0 60334 23400.00000 0 -16542962.865 14207403.667 13209871.914 10 0 60334 24300.00000 0 -15451802.061 12778479.765 15752642.213 10 0 60334 25200.00000 0 -14336367.337 11010705.131 17989108.653 10 0 60334 26100.00000 0 -13256433.900 8931731.832 19875950.061 10 0 60334 27000.00000 0 -12266783.585 6581424.455 21376681.997 10 0 60334 27900.00000 0 -11414861.427 4010434.768 22462351.353 10 0 60334 28800.00000 0 -10738762.983 1278330.537 23112082.200 10 0 60334 29700.00000 0 -10265635.663 -1548643.405 23313463.815 10 0 60334 30600.00000 0 -10010559.582 -4400078.985 23062774.918 10 0 60334 31500.00000 0 -9975953.167 -7204089.745 22365041.152 10 0 60334 32400.00000 0 -10151526.773 -9890056.401 21233925.880 10 0 60334 33300.00000 0 -10514784.841 -12391320.607 19691457.191 10 0 60334 34200.00000 0 -11032054.480 -14647716.840 17767596.851 10 0 60334 35100.00000 0 -11659996.701 -16607839.201 15499659.561 10 0 60334 36000.00000 0 -12347536.707 -18230950.836 12931593.450 10 0 60334 36900.00000 0 -13038132.401 -19488458.335 10113135.156 10 0 60334 37800.00000 0 -13672286.293 -20364891.299 7098855.065 10 0 60334 38700.00000 0 -14190195.885 -20858347.447 3947110.284 10 0 60334 39600.00000 0 -14534431.706 -20980385.612 718924.761 10 0 60334 40500.00000 0 -14652530.867 -20755371.613 -2523182.627 10 0 60334 41400.00000 0 -14499397.252 -20219304.592 -5716400.090 10 0 60334 42300.00000 0 -14039407.246 -19418172.893 -8798832.352 10 0 60334 43200.00000 0 -13248131.869 -18405908.127 -11710694.569 10 0 60334 44100.00000 0 -12113601.918 -17242022.794 -14395467.991 10 0 60334 45000.00000 0 -10637061.501 -15989030.143 -16800995.161 10 0 60334 45900.00000 0 -8833176.479 -14709754.106 -18880493.579 10 0 60334 46800.00000 0 -6729686.885 -13464641.905 -20593468.171 10 0 60334 47700.00000 0 -4366515.497 -12309191.983 -21906504.675 10 0 60334 48600.00000 0 -1794367.384 -11291605.306 -22793928.299 10 0 60334 49500.00000 0 927123.467 -10450758.925 -23238314.333 10 0 60334 50400.00000 0 3731625.235 -9814587.462 -23230840.156 10 0 60334 51300.00000 0 6548625.826 -9398941.206 -22771470.913 10 0 60334 52200.00000 0 9306133.337 -9206969.713 -21868974.253 10 0 60334 53100.00000 0 11933447.690 -9229057.726 -20540762.727 10 0 60334 54000.00000 0 14363888.214 -9443316.958 -18812565.790 10 0 60334 54900.00000 0 16537363.328 -9816613.671 -16717936.771 10 0 60334 55800.00000 0 18402674.534 -10306089.036 -14297603.611 10 0 60334 56700.00000 0 19919457.844 -10861108.041 -11598675.520 10 0 60334 57600.00000 0 21059680.761 -11425554.078 -8673720.901 10 0 60334 58500.00000 0 21808631.670 -11940371.226 -5579734.889 10 0 60334 59400.00000 0 22165360.056 -12346245.285 -2377017.403 10 0 60334 60300.00000 0 22142549.482 -12586308.489 872015.269 10 0 60334 61200.00000 0 21765829.569 -12608751.619 4104060.730 10 0 60334 62100.00000 0 21072557.383 -12369231.291 7256177.025 10 0 60334 63000.00000 0 20110121.314 -11832969.099 10267019.714 10 0 60334 63900.00000 0 18933840.929 -10976452.734 13078044.021 10 0 60334 64800.00000 0 17604553.233 -9788666.560 15634647.697 10 0 60334 65700.00000 0 16185988.783 -8271799.430 17887231.905 10 0 60334 66600.00000 0 14742049.407 -6441400.017 19792159.493 10 0 60334 67500.00000 0 13334102.793 -4325973.425 21312592.571 10 0 60334 68400.00000 0 12018407.718 -1966036.360 22419194.153 10 0 60334 69300.00000 0 10843777.444 587329.251 23090681.541 10 0 60334 70200.00000 0 9849578.131 3274363.679 23314222.233 10 0 60334 71100.00000 0 9064144.523 6028879.372 23085666.251 10 0 60334 72000.00000 0 8503677.400 8780780.348 22409611.784 10 0 60334 72900.00000 0 8171666.965 11458747.235 21299304.068 10 0 60334 73800.00000 0 8058864.451 13992977.667 19776370.279 10 0 60334 74700.00000 0 8143801.563 16317869.761 17870396.020 10 0 60334 75600.00000 0 8393834.745 18374538.924 15618351.652 10 0 60334 76500.00000 0 8766669.768 20113065.156 13063879.268 10 0 60334 77400.00000 0 9212302.314 21494379.013 10256453.537 10 0 60334 78300.00000 0 9675293.112 22491709.203 7250431.904 10 0 60334 79200.00000 0 10097282.355 23091532.664 4104011.615 10 0 60334 80100.00000 0 10419638.077 23293988.322 878112.919 10 0 60334 81000.00000 0 10586127.510 23112737.768 -2364790.798 10 0 60334 81900.00000 0 10545499.283 22574278.831 -5561874.067 10 0 60334 82800.00000 0 10253867.742 21716740.648 -8651168.895 10 0 60334 83700.00000 0 9676798.728 20588210.301 -11572759.936 10 0 60334 84600.00000 0 8791008.238 19244660.601 -14269942.500 10 0 60334 85500.00000 0 7585601.300 17747565.199 -16690321.179 10 0 60335 0.00000 0 6062797.518 16161300.527 -18786827.753 10 0 60335 900.00000 0 4238109.860 14550441.992 -20518639.731 10 0 60335 1800.00000 0 2139968.971 12977069.485 -21851978.809 10 0 60335 2700.00000 0 -191196.480 11498192.034 -22760777.202 10 0 60335 3600.00000 0 -2704385.559 10163401.642 -23227195.576 10 0 60335 4500.00000 0 -5339900.471 9012854.003 -23241983.014 10 0 60335 5400.00000 0 -8031595.316 8075661.328 -22804670.997 10 0 60335 6300.00000 0 -10709406.047 7368765.245 -21923596.613 10 0 60335 7200.00000 0 -13302057.254 6896337.743 -20615753.440 10 0 60335 8100.00000 0 -15739833.429 6649735.910 -18906471.903 10 0 60335 9000.00000 0 -17957299.178 6608012.856 -16828934.260 10 0 60335 9900.00000 0 -19895854.332 6738963.489 -14423532.873 10 0 60335 10800.00000 0 -21506016.471 7000660.911 -11737083.713 10 0 60335 11700.00000 0 -22749334.503 7343418.007 -8821910.285 10 0 60335 12600.00000 0 -23599852.338 7712090.343 -5734816.171 10 0 60335 13500.00000 0 -24045060.736 8048621.565 -2535966.960 10 0 60335 14400.00000 0 -24086297.269 8294721.885 712295.505 10 0 60335 15300.00000 0 -23738577.968 8394564.373 3946681.995 10 0 60335 16200.00000 0 -23029868.705 8297383.046 7104202.360 10 0 60335 17100.00000 0 -21999828.342 7959861.058 10123403.781 10 0 60335 18000.00000 0 -20698078.328 7348206.596 12945575.324 10 0 60335 18900.00000 0 -19182073.427 6439827.754 15515894.361 10 0 60335 19800.00000 0 -17514664.936 5224535.127 17784492.065 10 0 60335 20700.00000 0 -15761460.312 3705221.310 19707417.209 10 0 60335 21600.00000 0 -13988091.133 1897988.845 21247480.080 10 0 60335 22500.00000 0 -12257504.330 -168278.424 22374961.109 10 0 60335 23400.00000 0 -10627390.000 -2452882.288 23068171.761 10 0 60335 24300.00000 0 -9147852.491 -4904774.743 23313858.308 10 0 60335 25200.00000 0 -7859420.732 -7464459.104 23107442.262 10 0 60335 26100.00000 0 -6791479.069 -10066248.755 22453094.174 10 0 60335 27000.00000 0 -5961182.074 -12640790.231 21363640.615 10 0 60335 27900.00000 0 -5372896.513 -15117746.748 19860306.967 10 0 60335 28800.00000 0 -5018191.826 -17428531.924 17972301.458 10 0 60335 29700.00000 0 -4876377.792 -19508981.560 15736248.591 10 0 60335 30600.00000 0 -4915565.590 -21301853.976 13195482.614 10 0 60335 31500.00000 0 -5094206.922 -22759056.362 10399214.184 10 0 60335 32400.00000 0 -5363046.206 -23843505.813 7401585.560 10 0 60335 33300.00000 0 -5667403.792 -24530548.581 4260631.737 10 0 60335 34200.00000 0 -5949694.388 -24808879.098 1037166.763 10 0 60335 35100.00000 0 -6152075.066 -24680920.837 -2206384.062 10 0 60335 36000.00000 0 -6219111.645 -24162653.188 -5407184.255 10 0 60335 36900.00000 0 -6100351.291 -23282891.328 -8503195.838 10 0 60335 37800.00000 0 -5752692.837 -22082048.774 -11434375.756 10 0 60335 38700.00000 0 -5142454.483 -20610433.681 -14143836.186 10 0 60335 39600.00000 0 -4247050.940 -18926149.452 -16578946.526 10 0 60335 40500.00000 0 -3056208.050 -17092686.663 -18692355.811 10 0 60335 41400.00000 0 -1572662.068 -15176306.300 -20442915.794 10 0 60335 42300.00000 0 187687.938 -13243323.139 -21796486.624 10 0 60335 43200.00000 0 2196183.367 -11357402.376 -22726609.218 10 0 60335 44100.00000 0 4412350.727 -9576982.300 -23215030.851 10 0 60335 45000.00000 0 6785350.610 -7952930.742 -23252073.069 10 0 60335 45900.00000 0 9255872.733 -6526533.503 -22836833.969 10 0 60335 46800.00000 0 11758399.856 -5327899.252 -21977219.887 10 0 60335 47700.00000 0 14223747.444 -4374848.175 -20689804.811 10 0 60335 48600.00000 0 16581773.921 -3672331.377 -18999519.076 10 0 60335 49500.00000 0 18764148.597 -3212405.737 -16939172.386 10 0 60335 50400.00000 0 20707061.303 -2974765.421 -14548819.597 10 0 60335 51300.00000 0 22353759.701 -2927807.440 -11874981.060 10 0 60335 52200.00000 0 23656807.082 -3030185.781 -8969732.570 10 0 60335 53100.00000 0 24579964.958 -3232787.474 -5889682.951 10 0 60335 54000.00000 0 25099620.569 -3481045.682 -2694859.952 10 0 60335 54900.00000 0 25205698.777 -3717490.224 552472.724 10 0 60335 55800.00000 0 24902019.875 -3884425.643 3789042.767 10 0 60335 56700.00000 0 24206088.702 -3926621.403 6951815.472 10 0 60335 57600.00000 0 23148324.833 -3793898.466 9979233.059 10 0 60335 58500.00000 0 21770767.607 -3443501.136 12812421.516 10 0 60335 59400.00000 0 20125312.075 -2842152.662 15396340.521 10 0 60335 60300.00000 0 18271551.668 -1967706.971 17680853.502 10 0 60335 61200.00000 0 16274319.738 -810326.515 19621696.962 10 0 60335 62100.00000 0 14201034.247 626863.349 21181330.739 10 0 60335 63000.00000 0 12118957.459 2327670.680 22329653.648 10 0 60335 63900.00000 0 10092485.344 4263287.914 23044571.871 10 0 60335 64800.00000 0 8180579.334 6393278.247 23312410.628 10 0 60335 65700.00000 0 6434446.367 8667056.047 23128162.673 10 0 60335 66600.00000 0 4895562.311 11025799.588 22495570.278 10 0 60335 67500.00000 0 3594119.058 13404716.821 21427040.309 10 0 60335 68400.00000 0 2547957.794 15735570.625 19943394.924 10 0 60335 69300.00000 0 1762030.705 17949359.471 18073463.199 10 0 60335 70200.00000 0 1228411.541 19979043.223 15853521.682 10 0 60335 71100.00000 0 926852.853 21762202.063 13326594.427 10 0 60335 72000.00000 0 825865.277 23243519.125 10541625.495 10 0 60335 72900.00000 0 884272.776 24376984.683 7552539.203 10 0 60335 73800.00000 0 1053178.116 25127730.982 4417205.399 10 0 60335 74700.00000 0 1278255.903 25473421.841 1196328.947 10 0 60335 75600.00000 0 1502276.875 25405139.352 -2047715.939 10 0 60335 76500.00000 0 1667757.418 24927730.655 -5252084.718 10 0 60335 77400.00000 0 1719622.906 24059599.924 -8354672.265 10 0 60335 78300.00000 0 1607772.699 22831953.698 -11295310.441 10 0 60335 79200.00000 0 1289438.474 21287530.234 -14016930.683 10 0 60335 80100.00000 0 731235.949 19478865.061 -16466669.302 10 0 60335 81000.00000 0 -89177.399 17466164.210 -18596894.247 10 0 60335 81900.00000 0 -1181909.838 15314872.930 -20366133.441 10 0 60335 82800.00000 0 -2544160.065 13093040.586 -21739886.558 10 0 60335 83700.00000 0 -4160089.617 10868590.973 -22691304.233 10 0 60335 84600.00000 0 -6001250.789 8706611.479 -23201721.068 10 0 60335 85500.00000 0 -8027554.587 6666773.929 -23261031.463 99